HST
1 20580U 90037B   25020.90950801  .00012147  00000-0  49998-3 0  9992
2 20580  28.4690 321.3529 0002410 265.9644  94.0674 15.22538611710455
ISS (ZARYA)
1 25544U 98067A   25021.20587325  .00028394  00000-0  49798-3 0  9998
2 25544  51.6398 315.0945 0002555 116.8191  25.1832 15.50323716492363
CXO
1 25867U 99040B   25018.70403827  .00000532  00000-0  00000-0 0  9997
2 25867  46.1607 137.5767 8637386 306.3857   0.1471  0.37807172 15388